EW6167 Weather Reports


time (UTC)temp
C
wind
direction
speed
KPH
gust
KPH
rain 1hr
cm
rain 24hr
cm
rain mn
cm
humidity
%
barometer
mb
20260510071033 4 190 11.3 0.0 0.00 0.00 0.00 63 1016.6
20260510070551 4 200 9.7 0.0 0.00 0.00 0.00 64 1016.7
20260510070010 3 182 9.7 0.0 0.00 0.00 0.00 66 1016.6
20260510065530 3 177 11.3 0.0 0.00 0.00 0.00 64 1016.6
20260510065054 3 179 12.9 0.0 0.00 0.00 0.00 64 1016.6
20260510064522 3 200 11.3 0.0 0.00 0.00 0.00 66 1016.4
20260510064028 3 193 9.7 0.0 0.00 0.00 0.00 68 1016.3
20260510063552 3 184 6.4 0.0 0.00 0.00 0.00 67 1016.2
20260510063014 3 181 8.0 0.0 0.00 0.00 0.00 66 1016.3
20260510062538 3 184 9.7 0.0 0.00 0.00 0.00 66 1016.2
20260510062103 3 189 9.7 0.0 0.00 0.00 0.00 66 1016.2
20260510061524 3 193 9.7 0.0 0.00 0.00 0.00 65 1016.2
20260510061047 3 188 9.7 0.0 0.00 0.00 0.00 64 1016.2
20260510060506 4 184 9.7 0.0 0.00 0.00 0.00 63 1016.2
20260510060032 4 194 9.7 0.0 0.00 0.00 0.00 62 1016.2
20260510055554 4 184 9.7 0.0 0.00 0.00 0.00 64 1016.2
20260510055010 3 189 9.7 0.0 0.00 0.00 0.00 65 1016.0
20260510054536 3 183 9.7 0.0 0.00 0.00 0.00 65 1015.8
20260510054100 3 182 9.7 0.0 0.00 0.00 0.00 65 1015.8
20260510053521 3 184 9.7 0.0 0.00 0.00 0.00 67 1015.7
20260510053044 3 171 8.0 0.0 0.00 0.00 0.00 67 1015.8
20260510052501 3 186 8.0 0.0 0.00 0.00 0.00 67 1015.7
20260510052024 3 178 9.7 0.0 0.00 0.00 0.00 66 1015.8
20260510051553 3 169 8.0 0.0 0.00 0.00 0.00 67 1015.8
20260510051009 2 169 8.0 0.0 0.00 0.00 0.00 67 1015.9
20260510050532 2 169 9.7 0.0 0.00 0.00 0.00 67 1015.9
20260510050055 3 155 8.0 0.0 0.00 0.00 0.00 66 1015.9
20260510045519 2 179 9.7 0.0 0.00 0.00 0.00 67 1015.9
20260510045041 2 175 11.3 0.0 0.00 0.00 0.00 67 1015.9
20260510044500 3 167 9.7 0.0 0.00 0.00 0.00 66 1015.8
20260510044024 3 170 9.7 0.0 0.00 0.00 0.00 65 1015.8
20260510043548 3 190 8.0 0.0 0.00 0.00 0.00 65 1015.7
20260510043008 3 207 9.7 0.0 0.00 0.00 0.00 66 1015.8
20260510042534 3 205 9.7 0.0 0.00 0.00 0.00 66 1015.7
20260510042102 3 201 9.7 0.0 0.00 0.00 0.00 65 1015.6
20260510041518 4 200 8.0 0.0 0.00 0.00 0.00 60 1015.5
20260510041044 5 196 8.0 0.0 0.00 0.00 0.00 55 1015.4
20260510040506 6 201 8.0 0.0 0.00 0.00 0.00 52 1015.2
20260510040033 7 202 8.0 0.0 0.00 0.00 0.00 50 1015.2
20260510035558 7 225 8.0 0.0 0.00 0.00 0.00 50 1015.1
20260510035019 7 321 8.0 0.0 0.00 0.00 0.00 52 1015.0
20260510034546 6 321 6.4 0.0 0.00 0.00 0.00 53 1014.9
20260510034000 6 321 6.4 0.0 0.00 0.00 0.00 52 1014.7
20260510033526 6 321 6.4 0.0 0.00 0.00 0.00 52 1014.6
20260510033117 7 321 8.0 0.0 0.00 0.00 0.00 51 1014.6
20260510032517 7 321 6.4 0.0 0.00 0.00 0.00 50 1014.4
20260510032042 8 321 3.2 0.0 0.00 0.00 0.00 48 1014.3
20260510031502 9 321 1.6 0.0 0.00 0.00 0.00 44 1014.1
20260510031026 10 321 3.2 0.0 0.00 0.00 0.00 43 1014.0
20260510030548 10 321 3.2 0.0 0.00 0.00 0.00 42 1014.0
20260510030022 11 321 4.8 0.0 0.00 0.00 0.00 40 1013.9
20260510025537 11 321 4.8 0.0 0.00 0.00 0.00 39 1013.8
20260510025004 12 321 3.2 0.0 0.00 0.00 0.00 38 1013.7
20260510024528 12 321 3.2 0.0 0.00 0.00 0.00 37 1013.6
20260510024059 12 321 3.2 0.0 0.00 0.00 0.00 37 1013.5
20260510023524 12 321 3.2 0.0 0.00 0.00 0.00 35 1013.5
20260510023049 13 321 3.2 0.0 0.00 0.00 0.00 35 1013.5
20260510022520 13 321 4.8 0.0 0.00 0.00 0.00 35 1013.5
20260510022044 13 321 6.4 0.0 0.00 0.00 0.00 34 1013.4
20260510021517 14 321 6.4 0.0 0.00 0.00 0.00 35 1013.4
20260510021036 14 321 8.0 0.0 0.00 0.00 0.00 33 1013.4
20260510020504 15 326 9.7 0.0 0.00 0.00 0.00 32 1013.2
20260510020032 15 329 9.7 0.0 0.00 0.00 0.00 30 1013.2
20260510015600 15 329 9.7 0.0 0.00 0.00 0.00 29 1013.2
20260510015027 15 319 9.7 0.0 0.00 0.00 0.00 30 1013.1
20260510014557 15 313 9.7 0.0 0.00 0.00 0.00 30 1013.2
20260510014021 15 318 9.7 0.0 0.00 0.00 0.00 30 1013.2
20260510013549 15 329 9.7 0.0 0.00 0.00 0.00 29 1013.2
20260510013014 15 340 9.7 0.0 0.00 0.00 0.00 30 1013.1
20260510012549 15 316 11.3 0.0 0.00 0.00 0.00 29 1013.1
20260510012015 15 330 11.3 0.0 0.00 0.00 0.00 29 1013.0
20260510011548 15 329 8.0 0.0 0.00 0.00 0.00 29 1013.0
20260510011013 15 29 4.8 0.0 0.00 0.00 0.00 30 1013.0
20260510010547 15 27 6.4 0.0 0.00 0.00 0.00 29 1013.0
20260510010016 15 34 8.0 0.0 0.00 0.00 0.00 29 1013.0
20260510005546 15 28 9.7 0.0 0.00 0.00 0.00 30 1013.1
20260510005018 15 346 11.3 0.0 0.00 0.00 0.00 30 1013.0
20260510004545 15 339 12.9 0.0 0.00 0.00 0.00 29 1013.0
20260510004026 15 324 11.3 0.0 0.00 0.00 0.00 29 1012.9
20260510003553 15 355 12.9 0.0 0.00 0.00 0.00 29 1012.9
20260510003020 15 360 14.5 0.0 0.00 0.00 0.00 28 1012.9
20260510002552 15 350 14.5 0.0 0.00 0.00 0.00 28 1012.9
20260510002021 15 360 14.5 0.0 0.00 0.00 0.00 28 1012.9
20260510001556 15 19 16.1 0.0 0.00 0.00 0.00 27 1012.9
20260510001022 15 351 17.7 0.0 0.00 0.00 0.00 28 1012.7
20260510000558 15 344 16.1 0.0 0.00 0.00 0.00 27 1012.7
20260510000035 16 355 14.5 0.0 0.00 0.00 0.00 27 1012.6
20260509235604 16 323 16.1 0.0 0.00 0.00 0.00 25 1012.5
20260509235030 16 355 14.5 0.0 0.00 0.00 0.00 27 1012.6
20260509234519 16 300 12.9 0.0 0.00 0.00 0.00 26 1012.6
20260509234038 16 355 11.3 0.0 0.00 0.00 0.00 26 1012.6
20260509233505 16 24 12.9 0.0 0.00 0.00 0.00 28 1012.5
20260509233042 16 5 12.9 0.0 0.00 0.00 0.00 27 1012.6
20260509232512 16 331 9.7 0.0 0.00 0.00 0.00 27 1012.5
20260509232045 16 355 12.9 0.0 0.00 0.00 0.00 27 1012.6
20260509231517 16 355 16.1 0.0 0.00 0.00 0.00 26 1012.6
20260509231052 16 331 14.5 0.0 0.00 0.00 0.00 27 1012.6
20260509230526 16 330 16.1 0.0 0.00 0.00 0.00 28 1012.5
20260509230105 16 11 17.7 0.0 0.00 0.00 0.00 27 1012.6
20260509225535 16 360 16.1 0.0 0.00 0.00 0.00 28 1012.4
20260509225008 15 355 16.1 0.0 0.00 0.00 0.00 27 1012.4
20260509224555 15 348 12.9 0.0 0.00 0.00 0.00 27 1012.4
20260509224019 16 17 12.9 0.0 0.00 0.00 0.00 27 1012.4
20260509223553 16 345 16.1 0.0 0.00 0.00 0.00 26 1012.4
20260509223025 16 19 17.7 0.0 0.00 0.00 0.00 26 1012.4
20260509222601 15 15 16.1 0.0 0.00 0.00 0.00 27 1012.4
20260509222036 16 349 12.9 0.0 0.00 0.00 0.00 26 1012.4
20260509221510 16 311 12.9 0.0 0.00 0.00 0.00 27 1012.3
20260509221045 15 5 16.1 0.0 0.00 0.00 0.00 26 1012.5
20260509220517 16 5 17.7 0.0 0.00 0.00 0.00 26 1012.4
20260509220052 16 335 14.5 0.0 0.00 0.00 0.00 28 1012.3
20260509215526 15 348 12.9 0.0 0.00 0.00 0.00 27 1012.3
20260509215002 15 18 11.3 0.0 0.00 0.00 0.00 27 1012.5
20260509214543 15 44 12.9 0.0 0.00 0.00 0.00 27 1012.4
20260509214022 15 271 14.5 0.0 0.00 0.00 0.00 27 1012.5
20260509213603 16 322 16.1 0.0 0.00 0.00 0.00 27 1012.4
20260509213034 15 14 16.1 0.0 0.00 0.00 0.00 29 1012.5
20260509212509 15 360 19.3 0.0 0.00 0.00 0.00 28 1012.4
20260509212046 15 5 17.7 0.0 0.00 0.00 0.00 28 1012.3
20260509211520 15 360 16.1 0.0 0.00 0.00 0.00 28 1012.4
20260509211103 15 342 17.7 0.0 0.00 0.00 0.00 27 1012.4
20260509210537 15 355 12.9 0.0 0.00 0.00 0.00 29 1012.3
20260509210014 15 31 11.3 0.0 0.00 0.00 0.00 27 1012.3
20260509205552 15 317 11.3 0.0 0.00 0.00 0.00 26 1012.4
20260509205028 15 9 8.0 0.0 0.00 0.00 0.00 28 1012.4
20260509204503 15 55 9.7 0.0 0.00 0.00 0.00 28 1012.4
20260509204042 15 40 12.9 0.0 0.00 0.00 0.00 28 1012.5
20260509203514 15 266 12.9 0.0 0.00 0.00 0.00 27 1012.3
20260509203101 15 338 12.9 0.0 0.00 0.00 0.00 27 1012.3
20260509202527 15 333 14.5 0.0 0.00 0.00 0.00 27 1012.5
20260509202107 15 16 9.7 0.0 0.00 0.00 0.00 29 1012.4
20260509201539 14 311 11.3 0.0 0.00 0.00 0.00 28 1012.3
20260509201017 14 13 14.5 0.0 0.00 0.00 0.00 27 1012.5
20260509200553 14 355 12.9 0.0 0.00 0.00 0.00 28 1012.5
20260509200026 14 34 12.9 0.0 0.00 0.00 0.00 29 1012.5
20260509195609 14 338 14.5 0.0 0.00 0.00 0.00 28 1012.3
20260509195039 14 319 11.3 0.0 0.00 0.00 0.00 29 1012.3
20260509194509 14 58 9.7 0.0 0.00 0.00 0.00 29 1012.4
20260509194053 13 47 8.0 0.0 0.00 0.00 0.00 30 1012.4
20260509193525 14 14 12.9 0.0 0.00 0.00 0.00 28 1012.6
20260509193003 13 30 14.5 0.0 0.00 0.00 0.00 29 1012.6
20260509192539 13 11 11.3 0.0 0.00 0.00 0.00 30 1012.6
20260509192017 13 20 12.9 0.0 0.00 0.00 0.00 30 1012.7
20260509191556 13 36 11.3 0.0 0.00 0.00 0.00 30 1012.7
20260509191034 13 55 8.0 0.0 0.00 0.00 0.00 32 1012.6
20260509190510 13 34 9.7 0.0 0.00 0.00 0.00 31 1012.6
20260509190050 13 5 12.9 0.0 0.00 0.00 0.00 32 1012.6
20260509185533 13 24 14.5 0.0 0.00 0.00 0.00 31 1012.6
20260509185011 13 360 12.9 0.0 0.00 0.00 0.00 31 1012.7
20260509184552 13 5 14.5 0.0 0.00 0.00 0.00 30 1012.6
20260509184027 13 26 14.5 0.0 0.00 0.00 0.00 30 1012.7
20260509183506 13 15 14.5 0.0 0.00 0.00 0.00 31 1012.6
20260509183049 13 9 16.1 0.0 0.00 0.00 0.00 31 1012.5
20260509182524 13 22 14.5 0.0 0.00 0.00 0.00 30 1012.6
20260509182003 13 48 12.9 0.0 0.00 0.00 0.00 31 1012.6
20260509181604 12 26 14.5 0.0 0.00 0.00 0.00 34 1012.6
20260509181023 12 45 16.1 0.0 0.00 0.00 0.00 31 1012.6
20260509180605 12 16 16.1 0.0 0.00 0.00 0.00 32 1012.4
20260509180111 12 13 16.1 0.0 0.00 0.00 0.00 30 1012.4
20260509175524 12 36 16.1 0.0 0.00 0.00 0.00 31 1012.4
20260509175001 12 360 16.1 0.0 0.00 0.00 0.00 31 1012.5
20260509174543 12 38 14.5 0.0 0.00 0.00 0.00 29 1012.5
20260509174021 12 51 14.5 0.0 0.00 0.00 0.00 31 1012.4
20260509173605 12 10 17.7 0.0 0.00 0.00 0.00 30 1012.4
20260509173047 12 339 19.3 0.0 0.00 0.00 0.00 30 1012.3
20260509172522 12 11 19.3 0.0 0.00 0.00 0.00 31 1012.4
20260509172106 12 355 16.1 0.0 0.00 0.00 0.00 32 1012.4
20260509171550 12 360 17.7 0.0 0.00 0.00 0.00 32 1012.5
20260509171027 12 360 16.1 0.0 0.00 0.00 0.00 31 1012.5
20260509170507 11 330 16.1 0.0 0.00 0.00 0.00 33 1012.5
20260509170052 11 350 20.9 0.0 0.00 0.00 0.00 33 1012.4
20260509165525 12 334 20.9 0.0 0.00 0.00 0.00 32 1012.4
20260509165005 11 337 22.5 0.0 0.00 0.00 0.00 33 1012.4
20260509164552 11 316 19.3 0.0 0.00 0.00 0.00 33 1012.4
20260509164036 11 11 17.7 0.0 0.00 0.00 0.00 34 1012.4
20260509163518 11 355 17.7 0.0 0.00 0.00 0.00 33 1012.5
20260509163104 12 350 17.7 0.0 0.00 0.00 0.00 34 1012.4
20260509162548 11 345 20.9 0.0 0.00 0.00 0.00 34 1012.4
20260509162032 11 11 20.9 0.0 0.00 0.00 0.00 33 1012.4
20260509161513 11 11 20.9 0.0 0.00 0.00 0.00 35 1012.6
20260509161058 11 26 17.7 0.0 0.00 0.00 0.00 35 1012.5
20260509160544 11 5 14.5 0.0 0.00 0.00 0.00 35 1012.4
20260509160036 11 20 16.1 0.0 0.00 0.00 0.00 35 1012.4
20260509155517 11 355 17.7 0.0 0.00 0.00 0.00 35 1012.4
20260509155104 10 5 19.3 0.0 0.00 0.00 0.00 34 1012.4
20260509154551 10 329 20.9 0.0 0.00 0.00 0.00 34 1012.3
20260509154032 11 355 19.3 0.0 0.00 0.00 0.00 36 1012.2
20260509153518 10 342 19.3 0.0 0.00 0.00 0.00 35 1012.3
20260509153111 10 348 17.7 0.0 0.00 0.00 0.00 37 1012.3
20260509152548 10 5 17.7 0.0 0.00 0.00 0.00 36 1012.4
20260509152034 10 360 12.9 0.0 0.00 0.00 0.00 37 1012.5
20260509151524 10 21 11.3 0.0 0.00 0.00 0.00 38 1012.6
20260509151011 10 11 12.9 0.0 0.00 0.00 0.00 38 1012.5
20260509150602 10 342 14.5 0.0 0.00 0.00 0.00 37 1012.4
20260509150043 10 35 14.5 0.0 0.00 0.00 0.00 39 1012.5
20260509145526 10 15 14.5 0.0 0.00 0.00 0.00 40 1012.5
20260509145010 9 343 16.1 0.0 0.00 0.00 0.00 40 1012.5
20260509144602 9 360 17.7 0.0 0.00 0.00 0.00 39 1012.4
20260509144048 9 5 14.5 0.0 0.00 0.00 0.00 39 1012.5
20260509143534 9 5 9.7 0.0 0.00 0.00 0.00 41 1012.4
20260509143024 8 36 9.7 0.0 0.00 0.00 0.00 43 1012.6
20260509142512 8 15 9.7 0.0 0.00 0.00 0.00 44 1012.6
20260509142103 8 30 9.7 0.0 0.00 0.00 0.00 44 1012.6
20260509141551 8 28 11.3 0.0 0.00 0.00 0.00 45 1012.6
20260509141041 7 23 11.3 0.0 0.00 0.00 0.00 48 1012.7
20260509140525 7 26 9.7 0.0 0.00 0.00 0.00 47 1012.6
20260509140017 7 33 6.4 0.0 0.00 0.00 0.00 48 1012.6
20260509135510 7 347 6.4 0.0 0.00 0.00 0.00 46 1012.6
20260509135055 7 355 6.4 0.0 0.00 0.00 0.00 46 1012.6
20260509134545 7 360 6.4 0.0 0.00 0.00 0.00 46 1012.6
20260509134031 6 40 4.8 0.0 0.00 0.00 0.00 47 1012.6
20260509133517 6 38 6.4 0.0 0.00 0.00 0.00 47 1012.5
20260509133003 6 38 6.4 0.0 0.00 0.00 0.00 47 1012.5
20260509132553 6 62 4.8 0.0 0.00 0.00 0.00 46 1012.4
20260509132045 6 62 6.4 0.0 0.00 0.00 0.00 47 1012.4
20260509131532 6 62 4.8 0.0 0.00 0.00 0.00 47 1012.2
20260509131021 6 66 4.8 0.0 0.00 0.00 0.00 48 1012.2
20260509130510 7 355 4.8 0.0 0.00 0.00 0.00 48 1012.0
20260509130005 7 355 6.4 0.0 0.00 0.00 0.00 48 1012.0
20260509125556 7 355 8.0 0.0 0.00 0.00 0.00 48 1011.9
20260509125049 6 355 8.0 0.0 0.00 0.00 0.00 48 1011.9
20260509124548 6 344 4.8 0.0 0.00 0.00 0.00 48 1011.9
20260509124032 6 77 4.8 0.0 0.00 0.00 0.00 48 1011.9
20260509123526 6 355 4.8 0.0 0.00 0.00 0.00 46 1011.9
20260509123015 6 355 6.4 0.0 0.00 0.00 0.00 46 1012.0
20260509122502 6 355 4.8 0.0 0.00 0.00 0.00 46 1012.0
20260509122058 6 355 4.8 0.0 0.00 0.00 0.00 46 1012.0
20260509121553 6 355 4.8 0.0 0.00 0.00 0.00 47 1011.9
20260509121048 6 351 8.0 0.0 0.00 0.00 0.00 47 1011.9
20260509120536 5 351 6.4 0.0 0.00 0.00 0.00 48 1011.8
20260509120025 5 355 4.8 0.0 0.00 0.00 0.00 48 1011.7
20260509115517 5 34 3.2 0.0 0.00 0.00 0.00 47 1011.6
20260509115006 6 355 1.6 0.0 0.00 0.00 0.00 45 1011.5
20260509114600 6 341 1.6 0.0 0.00 0.00 0.00 44 1011.5
20260509114053 6 341 3.2 0.0 0.00 0.00 0.00 43 1011.5
20260509113548 6 341 4.8 0.0 0.00 0.00 0.00 42 1011.5
20260509113043 7 341 6.4 0.0 0.00 0.00 0.00 42 1011.4
20260509112529 7 341 8.0 0.0 0.00 0.00 0.00 42 1011.5
20260509112020 7 341 9.7 0.0 0.00 0.00 0.00 42 1011.4
20260509111514 7 341 11.3 0.0 0.00 0.00 0.00 42 1011.5
20260509111006 6 340 12.9 0.0 0.00 0.00 0.00 43 1011.6
20260509110601 6 340 12.9 0.0 0.00 0.00 0.00 43 1011.6
20260509110052 6 340 11.3 0.0 0.00 0.00 0.00 44 1011.4
20260509105552 5 340 8.0 0.0 0.00 0.00 0.00 44 1011.5
20260509105048 5 22 6.4 0.0 0.00 0.00 0.00 44 1011.4
20260509104605 5 26 6.4 0.0 0.00 0.00 0.00 42 1011.3
20260509104042 5 26 4.8 0.0 0.00 0.00 0.00 43 1011.3
20260509103537 5 30 4.8 0.0 0.00 0.00 0.00 43 1011.2
20260509103034 5 30 6.4 0.0 0.00 0.00 0.00 42 1011.2
20260509102524 5 41 6.4 0.0 0.00 0.00 0.00 43 1011.3
20260509102015 5 46 6.4 0.0 0.00 0.00 0.00 43 1011.2
20260509101513 5 44 6.4 0.0 0.00 0.00 0.00 43 1011.1
20260509101100 5 42 8.0 0.0 0.00 0.00 0.00 42 1011.0
20260509100555 5 38 8.0 0.0 0.00 0.00 0.00 42 1011.0
20260509100047 5 36 6.4 0.0 0.00 0.00 0.00 42 1010.9
20260509095539 5 37 6.4 0.0 0.00 0.00 0.00 41 1010.9
20260509095029 5 37 8.0 0.0 0.00 0.00 0.00 40 1010.9
20260509094528 5 36 6.4 0.0 0.00 0.00 0.00 39 1010.9
20260509094011 6 44 6.4 0.0 0.00 0.00 0.00 38 1010.8
20260509093508 7 55 6.4 0.0 0.00 0.00 0.00 35 1010.7
20260509093003 7 63 4.8 0.0 0.00 0.00 0.00 35 1010.6
20260509092604 6 52 3.2 0.0 0.00 0.00 0.00 36 1010.5
20260509092059 6 52 3.2 0.0 0.00 0.00 0.00 37 1010.5
20260509091552 6 52 6.4 0.0 0.00 0.00 0.00 38 1010.5
20260509091049 6 28 6.4 0.0 0.00 0.00 0.00 37 1010.4
20260509090540 6 21 4.8 0.0 0.00 0.00 0.00 37 1010.4
20260509090047 7 33 4.8 0.0 0.00 0.00 0.00 36 1010.4
20260509085523 7 17 6.4 0.0 0.00 0.00 0.00 36 1010.4
20260509085017 7 17 8.0 0.0 0.00 0.00 0.00 35 1010.3
20260509084512 7 5 8.0 0.0 0.00 0.00 0.00 35 1010.3
20260509084007 8 18 9.7 0.0 0.00 0.00 0.00 35 1010.2
20260509083504 8 351 9.7 0.0 0.00 0.00 0.00 35 1010.3
20260509083002 8 5 11.3 0.0 0.00 0.00 0.00 37 1010.2
20260509082604 8 351 11.3 0.0 0.00 0.00 0.00 36 1010.2
20260509082059 8 355 11.3 0.0 0.00 0.00 0.00 34 1010.2
20260509081555 7 355 9.7 0.0 0.00 0.00 0.00 37 1010.1
20260509081048 7 17 8.0 0.0 0.00 0.00 0.00 39 1010.0
20260509080545 8 23 8.0 0.0 0.00 0.00 0.00 40 1009.9
20260509080040 8 26 6.4 0.0 0.00 0.00 0.00 39 1009.9
20260509075532 9 5 4.8 0.0 0.00 0.00 0.00 38 1009.9
20260509075031 9 5 4.8 0.0 0.00 0.00 0.00 37 1009.9
20260509074528 9 5 3.2 0.0 0.00 0.00 0.00 37 1009.9
20260509074022 9 5 3.2 0.0 0.00 0.00 0.00 37 1009.9
20260509073522 10 59 3.2 0.0 0.00 0.00 0.00 37 1009.8
20260509073035 9 58 3.2 0.0 0.00 0.00 0.00 37 1009.7
20260509072515 9 58 3.2 0.0 0.00 0.00 0.00 38 1009.6
20260509072017 10 58 3.2 0.0 0.00 0.00 0.00 38 1009.6
20260509071515 10 58 4.8 0.0 0.00 0.00 0.00 38 1009.6